STARLINK-36500, 67320

Orbit data source: Space-Track

STARLINK-36500, 67320 is a payload satellite owned by SpaceX/Seattle (US) in LEO that was launched on Sun, 04 Jan 2026 UTC via an FALCON 9 launch vehicle from the Air Force Eastern Test Range (AFETR). Payload-class satellites include a variety of spacecraft equipped with specific instruments for various scientific and technological missions. These include communications satellites like Starlink; space stations such as the ISS; scientific satellites like the Hubble; Earth observation satellites from companies like Planet Labs, Umbra, and HawkEye 360; GPS; miniature CubeSats for education and research; and military/defense satellites.

Loading next visibility...
Identifier
67320, 2026-002R
Orbit
LEO
Country
Flag of USUS
Related business
Manufacturer
SpaceX/Seattle
Mission
Operational spacecraft
Bus & Motor
STARLINK V2MO, Unknown motor
Mass
575 kg wet, ~530 kg dry
Launch date (UTC)
2026-01-04 (2 weeks ago)
Launch vehicle
FALCON 9
Launch site
Air Force Eastern Test Range (AFETR)
Object type
Payload
Rocket body
Debris
Shape & HBR
Unknown shape, 17.7 m
Radar Cross Section
RCS unknown

Expand to show TLE details & history
Last TLE update: 11 hours ago

TLE from 11 hours ago
0 STARLINK-36500
1 67320U 26002R   26014.25002315 -.01387758  54661-3 -41888-2 0  9996
2 67320  42.9981 280.4151 0002003 268.5425 148.1759 15.91317945  2722
Epoch: 2026-01-14T06:00Z
TLE epoch observation values (Epoch: 2026-01-14T06:00:02.000Z)
Latitude
34.90003°
Longitude
124.7519°
Altitude
301.133 km
Speed
7.732 km/s
True Right ascension
21h 53m 55s
True Declination
34° 43' 40"
Sunlit
Object was in daylight at epoch
Visualization orbit readout
Latitude
Unknown
Longitude
Unknown
Altitude
Unknown
Speed
Unknown
Apparent Right ascension
Unknown
Apparent Declination
Unknown
Sunlit
N/A
Visualization observer readout
Local Sidereal Time
17:48:33
Azimuth
Unknown
Elevation
Unknown
Doppler factor
Unknown
Orbital elements
Apogee altitude
301.931 km
Perigee altitude
299.255 km
Semi-major axis
6,678.73 km
Eccentricity
0.0002
Inclination
42.9981°
RAAN
280.4151°
Arg. of periapsis
268.5425°
True anomaly
148.188°
Mean anomaly
148.1759°
Eccentric anomaly
148.18195°
Mean motion
3.97651 °/min
Orbital period
90.53 mins
BSTAR
-0.0041888
Loading maneuver chart data...
Computing Atmospheric mass density...
Loading historical data...
Loading historical data...
Loading historical data...
Loading historical data...
Loading historical data...
Loading historical data...
Loading historical data...

Documentation

Showing up to 5 results
|